Time,TemperatureF,DewpointF,PressureIn,WindDirection,WindDirectionDegrees,WindSpeedMPH,WindSpeedGustMPH,Humidity,HourlyPrecipIn,Conditions,Clouds,dailyrainin,SolarRadiationWatts/m^2,SoftwareType,DateUTC
2013-04-08 00:00:00,47.6,43.3,29.99,NW,306,0.0,0.0,85,0.00,,,0.00,0,Wunderground v.1.15,2013-04-08 04:00:00,
2013-04-08 00:20:00,47.3,43.0,29.99,NW,306,0.0,0.0,85,0.00,,,0.00,0,Wunderground v.1.15,2013-04-08 04:20:00,
2013-04-08 00:30:00,47.2,43.2,29.99,NW,306,0.0,0.0,86,0.00,,,0.00,0,Wunderground v.1.15,2013-04-08 04:30:00,
2013-04-08 00:50:00,47.0,43.0,30.00,NW,306,0.0,0.0,86,0.00,,,0.00,0,Wunderground v.1.15,2013-04-08 04:50:00,
2013-04-08 01:00:00,47.1,43.1,30.00,NW,306,0.0,0.0,86,0.00,,,0.00,0,Wunderground v.1.15,2013-04-08 05:00:00,
2013-04-08 01:20:00,46.9,42.9,30.00,NW,306,0.0,0.0,86,0.00,,,0.00,0,Wunderground v.1.15,2013-04-08 05:20:00,
2013-04-08 01:30:00,46.7,42.7,30.01,NW,306,0.0,0.0,86,0.00,,,0.00,0,Wunderground v.1.15,2013-04-08 05:30:00,
2013-04-08 01:50:00,46.2,42.2,30.01,NW,306,0.0,0.0,86,0.00,,,0.00,0,Wunderground v.1.15,2013-04-08 05:50:00,
2013-04-08 02:00:00,45.8,41.9,30.01,NW,306,0.0,0.0,86,0.00,,,0.00,0,Wunderground v.1.15,2013-04-08 06:00:00,
2013-04-08 02:20:00,45.0,41.4,30.01,NW,306,0.0,0.0,87,0.00,,,0.00,0,Wunderground v.1.15,2013-04-08 06:20:00,
2013-04-08 02:30:00,44.7,41.1,30.01,NW,306,0.0,0.0,87,0.00,,,0.00,0,Wunderground v.1.15,2013-04-08 06:30:00,
2013-04-08 02:50:00,43.9,40.0,30.00,NW,306,0.0,0.0,86,0.00,,,0.00,0,Wunderground v.1.15,2013-04-08 06:50:00,
2013-04-08 03:00:00,43.5,39.9,30.00,NW,306,0.0,0.0,87,0.00,,,0.00,0,Wunderground v.1.15,2013-04-08 07:00:00,
2013-04-08 03:20:00,42.8,39.2,30.00,NW,306,0.0,0.0,87,0.00,,,0.00,0,Wunderground v.1.15,2013-04-08 07:20:00,
2013-04-08 03:30:00,42.7,39.4,30.00,NW,306,0.0,0.0,88,0.00,,,0.00,0,Wunderground v.1.15,2013-04-08 07:30:00,
2013-04-08 03:50:00,43.1,39.8,30.00,NW,306,0.0,0.0,88,0.00,,,0.00,0,Wunderground v.1.15,2013-04-08 07:50:00,
2013-04-08 04:00:00,43.1,40.1,30.00,NW,306,0.0,0.0,89,0.00,,,0.00,0,Wunderground v.1.15,2013-04-08 08:00:00,
2013-04-08 04:11:00,43.0,40.0,30.00,NW,306,0.0,0.0,89,0.00,,,0.00,0,Wunderground v.1.15,2013-04-08 08:11:00,
2013-04-08 04:20:00,42.8,39.8,30.00,NW,306,0.0,0.0,89,0.00,,,0.00,0,Wunderground v.1.15,2013-04-08 08:20:00,
2013-04-08 04:30:00,42.7,39.7,30.00,NW,306,0.0,0.0,89,0.00,,,0.00,0,Wunderground v.1.15,2013-04-08 08:30:00,
2013-04-08 04:50:00,42.2,38.9,30.00,NW,306,0.0,0.0,88,0.00,,,0.00,0,Wunderground v.1.15,2013-04-08 08:50:00,
2013-04-08 05:00:00,41.9,38.9,30.00,NW,306,0.0,0.0,89,0.00,,,0.00,0,Wunderground v.1.15,2013-04-08 09:00:00,
2013-04-08 05:20:00,41.3,38.3,30.00,NW,306,0.0,0.0,89,0.00,,,0.00,0,Wunderground v.1.15,2013-04-08 09:20:00,
2013-04-08 05:30:00,41.1,38.1,30.00,NW,306,0.0,0.0,89,0.00,,,0.00,0,Wunderground v.1.15,2013-04-08 09:30:00,
2013-04-08 05:50:00,40.9,37.9,30.00,NW,306,0.0,0.0,89,0.00,,,0.00,0,Wunderground v.1.15,2013-04-08 09:50:00,
2013-04-08 06:00:00,40.7,37.7,30.00,NW,306,0.0,0.0,89,0.00,,,0.00,0,Wunderground v.1.15,2013-04-08 10:00:00,
2013-04-08 06:20:00,40.2,37.2,30.01,NW,306,0.0,0.0,89,0.00,,,0.00,0,Wunderground v.1.15,2013-04-08 10:20:00,
2013-04-08 06:30:00,40.1,37.1,30.01,NW,306,0.0,0.0,89,0.00,,,0.00,0,Wunderground v.1.15,2013-04-08 10:30:00,
2013-04-08 06:41:00,39.9,36.9,30.01,NW,306,0.0,0.0,89,0.00,,,0.00,0,Wunderground v.1.15,2013-04-08 10:41:00,
2013-04-08 06:50:00,39.9,36.9,30.01,NW,306,0.0,0.0,89,0.00,,,0.00,0,Wunderground v.1.15,2013-04-08 10:50:00,
2013-04-08 07:00:00,40.0,37.0,30.02,NW,306,0.0,0.0,89,0.00,,,0.00,0,Wunderground v.1.15,2013-04-08 11:00:00,
2013-04-08 07:20:00,40.3,37.6,30.03,NW,306,0.0,0.0,90,0.00,,,0.00,11,Wunderground v.1.15,2013-04-08 11:20:00,
2013-04-08 07:30:00,40.6,37.9,30.03,NW,306,0.0,0.0,90,0.00,,,0.00,18,Wunderground v.1.15,2013-04-08 11:30:00,
2013-04-08 07:50:00,41.3,38.6,30.03,NW,306,0.0,0.0,90,0.00,,,0.00,46,Wunderground v.1.15,2013-04-08 11:50:00,
2013-04-08 08:00:00,41.6,38.9,30.04,NW,306,0.0,0.0,90,0.00,,,0.00,58,Wunderground v.1.15,2013-04-08 12:00:00,
2013-04-08 08:20:00,42.5,39.8,30.04,NW,306,0.0,0.0,90,0.00,,,0.00,74,Wunderground v.1.15,2013-04-08 12:20:00,
2013-04-08 08:30:00,43.0,40.3,30.04,NW,306,0.0,0.0,90,0.00,,,0.00,84,Wunderground v.1.15,2013-04-08 12:30:00,
2013-04-08 08:50:00,44.7,41.9,30.03,NW,306,0.0,0.0,90,0.00,,,0.00,142,Wunderground v.1.15,2013-04-08 12:50:00,
2013-04-08 09:00:00,45.8,43.0,30.03,NW,306,0.0,0.0,90,0.00,,,0.00,141,Wunderground v.1.15,2013-04-08 13:00:00,
2013-04-08 09:20:00,47.9,44.8,30.03,NW,306,0.0,0.0,89,0.00,,,0.00,151,Wunderground v.1.15,2013-04-08 13:20:00,
2013-04-08 09:30:00,49.2,46.1,30.02,NW,306,0.0,0.0,89,0.00,,,0.00,320,Wunderground v.1.15,2013-04-08 13:30:00,
2013-04-08 09:50:00,52.8,49.6,30.02,NW,306,0.0,0.0,89,0.00,,,0.00,436,Wunderground v.1.15,2013-04-08 13:50:00,
2013-04-08 10:00:00,55.7,51.6,30.01,NW,306,0.0,0.0,86,0.00,,,0.00,503,Wunderground v.1.15,2013-04-08 14:00:00,
2013-04-08 10:20:00,64.5,52.0,30.01,NNW,343,2.0,2.0,64,0.00,,,0.00,640,Wunderground v.1.15,2013-04-08 14:20:00,
2013-04-08 10:30:00,67.8,52.9,30.01,NW,322,3.0,5.0,59,0.00,,,0.00,283,Wunderground v.1.15,2013-04-08 14:30:00,
2013-04-08 10:41:00,69.8,53.9,30.01,ESE,109,3.0,4.0,57,0.00,,,0.00,315,Wunderground v.1.15,2013-04-08 14:41:00,
2013-04-08 10:50:00,70.6,53.1,30.01,ESE,105,3.0,4.0,54,0.00,,,0.00,610,Wunderground v.1.15,2013-04-08 14:50:00,
2013-04-08 11:00:00,71.6,53.6,30.01,ENE,69,2.0,2.0,53,0.00,,,0.00,610,Wunderground v.1.15,2013-04-08 15:00:00,
2013-04-08 11:20:00,73.7,54.4,30.00,NW,321,3.0,4.0,51,0.00,,,0.00,896,Wunderground v.1.15,2013-04-08 15:20:00,
2013-04-08 11:30:00,74.2,54.9,30.00,NW,316,4.0,5.0,51,0.00,,,0.00,949,Wunderground v.1.15,2013-04-08 15:30:00,
2013-04-08 11:50:00,74.2,54.4,30.00,NNW,337,3.0,4.0,50,0.00,,,0.00,856,Wunderground v.1.15,2013-04-08 15:50:00,
2013-04-08 12:00:00,74.0,54.7,30.00,East,93,3.0,3.0,51,0.00,,,0.00,239,Wunderground v.1.15,2013-04-08 16:00:00,
2013-04-08 12:20:00,74.2,55.4,29.99,East,80,2.0,2.0,52,0.00,,,0.00,1058,Wunderground v.1.15,2013-04-08 16:20:00,
2013-04-08 12:30:00,74.3,54.5,29.98,NW,313,3.0,3.0,50,0.00,,,0.00,371,Wunderground v.1.15,2013-04-08 16:30:00,
2013-04-08 12:50:00,75.2,55.3,29.99,NNE,20,2.0,2.0,50,0.00,,,0.00,1034,Wunderground v.1.15,2013-04-08 16:50:00,
2013-04-08 13:00:00,76.3,55.2,29.98,NNE,20,2.0,4.0,48,0.00,,,0.00,269,Wunderground v.1.15,2013-04-08 17:00:00,
2013-04-08 13:20:00,75.6,55.1,29.97,South,186,5.0,5.0,49,0.00,,,0.00,835,Wunderground v.1.15,2013-04-08 17:20:00,
2013-04-08 13:30:00,76.9,55.7,29.96,NW,318,2.0,9.0,48,0.00,,,0.00,898,Wunderground v.1.15,2013-04-08 17:30:00,
2013-04-08 13:50:00,75.9,54.2,29.95,NNW,332,3.0,5.0,47,0.00,,,0.00,234,Wunderground v.1.15,2013-04-08 17:50:00,
2013-04-08 14:00:00,75.8,53.5,29.94,North,11,4.0,4.0,46,0.00,,,0.00,631,Wunderground v.1.15,2013-04-08 18:00:00,
2013-04-08 14:20:00,76.2,54.5,29.95,SSE,158,4.0,4.0,47,0.00,,,0.00,171,Wunderground v.1.15,2013-04-08 18:20:00,
2013-04-08 14:30:00,75.7,54.6,29.95,NNE,24,1.0,1.0,48,0.00,,,0.00,267,Wunderground v.1.15,2013-04-08 18:30:00,
2013-04-08 14:50:00,74.8,55.5,29.94,NW,324,3.0,4.0,51,0.00,,,0.00,325,Wunderground v.1.15,2013-04-08 18:50:00,
2013-04-08 15:00:00,75.1,55.2,29.95,NNW,336,3.0,4.0,50,0.00,,,0.00,446,Wunderground v.1.15,2013-04-08 19:00:00,
2013-04-08 15:05:00,75.3,55.4,29.94,NW,315,3.0,4.0,50,0.00,,,0.00,297,Wunderground v.1.15,2013-04-08 19:05:00,
2013-04-08 15:20:00,75.5,55.0,29.94,NNW,333,2.0,2.0,49,0.00,,,0.00,271,Wunderground v.1.15,2013-04-08 19:20:00,
2013-04-08 15:30:00,75.5,56.1,29.93,NNW,339,1.0,1.0,51,0.00,,,0.00,313,Wunderground v.1.15,2013-04-08 19:30:00,
2013-04-08 15:50:00,76.7,55.5,29.92,NNW,330,2.0,2.0,48,0.00,,,0.00,294,Wunderground v.1.15,2013-04-08 19:50:00,
2013-04-08 16:00:00,76.8,56.2,29.92,NW,309,2.0,2.0,49,0.00,,,0.00,281,Wunderground v.1.15,2013-04-08 20:00:00,
2013-04-08 16:20:00,76.6,54.9,29.92,NNW,346,2.0,3.0,47,0.00,,,0.00,181,Wunderground v.1.15,2013-04-08 20:20:00,
2013-04-08 16:30:00,76.3,55.2,29.92,NNW,329,2.0,2.0,48,0.00,,,0.00,192,Wunderground v.1.15,2013-04-08 20:30:00,
2013-04-08 16:50:00,76.6,54.9,29.91,East,98,2.0,2.0,47,0.00,,,0.00,160,Wunderground v.1.15,2013-04-08 20:50:00,
2013-04-08 17:00:00,76.4,54.7,29.91,WNW,298,2.0,2.0,47,0.00,,,0.00,162,Wunderground v.1.15,2013-04-08 21:00:00,
2013-04-08 17:20:00,76.0,54.9,29.91,ENE,71,1.0,1.0,48,0.00,,,0.00,76,Wunderground v.1.15,2013-04-08 21:20:00,
2013-04-08 17:30:00,75.9,55.4,29.91,ENE,71,0.0,1.0,49,0.00,,,0.00,70,Wunderground v.1.15,2013-04-08 21:30:00,
2013-04-08 17:50:00,75.6,55.6,29.92,NW,306,0.0,1.0,50,0.00,,,0.00,137,Wunderground v.1.15,2013-04-08 21:50:00,
2013-04-08 18:00:00,75.5,55.6,29.92,NW,306,0.0,0.0,50,0.00,,,0.00,46,Wunderground v.1.15,2013-04-08 22:00:00,
2013-04-08 18:20:00,74.9,55.6,29.92,NW,306,0.0,0.0,51,0.00,,,0.00,53,Wunderground v.1.15,2013-04-08 22:20:00,
2013-04-08 18:30:00,74.6,56.9,29.92,NW,306,0.0,0.0,54,0.00,,,0.00,62,Wunderground v.1.15,2013-04-08 22:30:00,
2013-04-08 18:50:00,73.6,57.4,29.92,NW,306,0.0,0.0,57,0.00,,,0.00,62,Wunderground v.1.15,2013-04-08 22:50:00,
2013-04-08 19:00:00,73.1,57.4,29.92,NW,306,0.0,0.0,58,0.00,,,0.00,46,Wunderground v.1.15,2013-04-08 23:00:00,
2013-04-08 19:20:00,71.5,56.4,29.93,NW,306,0.0,0.0,59,0.00,,,0.00,16,Wunderground v.1.15,2013-04-08 23:20:00,
2013-04-08 19:30:00,70.6,56.0,29.93,NW,306,0.0,0.0,60,0.00,,,0.00,7,Wunderground v.1.15,2013-04-08 23:30:00,
2013-04-08 20:00:00,67.4,54.8,29.93,NW,306,0.0,0.0,64,0.00,,,0.00,0,Wunderground v.1.15,2013-04-09 00:00:00,
2013-04-08 20:20:00,66.0,54.7,29.94,NW,306,0.0,0.0,67,0.00,,,0.00,0,Wunderground v.1.15,2013-04-09 00:20:00,
2013-04-08 20:30:00,65.4,56.1,29.95,NW,306,0.0,0.0,72,0.00,,,0.00,0,Wunderground v.1.15,2013-04-09 00:30:00,
2013-04-08 20:50:00,63.5,57.6,29.95,NW,306,0.0,0.0,81,0.00,,,0.00,0,Wunderground v.1.15,2013-04-09 00:50:00,
2013-04-08 21:00:00,62.5,57.3,29.95,NW,306,0.0,0.0,83,0.00,,,0.00,0,Wunderground v.1.15,2013-04-09 01:00:00,
2013-04-08 21:20:00,60.9,56.0,29.95,NW,306,0.0,0.0,84,0.00,,,0.00,0,Wunderground v.1.15,2013-04-09 01:20:00,
2013-04-08 21:30:00,60.4,55.5,29.96,NW,306,0.0,0.0,84,0.00,,,0.00,0,Wunderground v.1.15,2013-04-09 01:30:00,
2013-04-08 21:50:00,59.5,55.0,29.97,NW,306,0.0,0.0,85,0.00,,,0.00,0,Wunderground v.1.15,2013-04-09 01:50:00,
2013-04-08 22:00:00,59.0,54.5,29.97,NW,306,0.0,0.0,85,0.00,,,0.00,0,Wunderground v.1.15,2013-04-09 02:00:00,
2013-04-08 22:20:00,58.1,53.6,29.98,NW,306,0.0,0.0,85,0.00,,,0.00,0,Wunderground v.1.15,2013-04-09 02:20:00,
2013-04-08 22:30:00,57.5,53.0,29.98,NW,306,0.0,0.0,85,0.00,,,0.00,0,Wunderground v.1.15,2013-04-09 02:30:00,
2013-04-08 22:50:00,56.5,52.4,29.99,NW,306,0.0,0.0,86,0.00,,,0.00,0,Wunderground v.1.15,2013-04-09 02:50:00,
2013-04-08 23:00:00,56.2,52.1,29.99,NW,306,0.0,0.0,86,0.00,,,0.00,0,Wunderground v.1.15,2013-04-09 03:00:00,
2013-04-08 23:20:00,55.4,51.6,30.00,NW,306,0.0,0.0,87,0.00,,,0.00,0,Wunderground v.1.15,2013-04-09 03:20:00,
2013-04-08 23:30:00,55.0,51.2,30.00,NW,306,0.0,0.0,87,0.00,,,0.00,0,Wunderground v.1.15,2013-04-09 03:30:00,
2013-04-08 23:50:00,54.0,49.9,30.00,NW,306,0.0,0.0,86,0.00,,,0.00,0,Wunderground v.1.15,2013-04-09 03:50:00,